Wind_Speed
6 6 7 7 7 7 7 7 6 6 6 5 5 6 6 7 7 7 7 7 7 7 7 8 8 8 8 8 8 7 8 9 9 10 8 9 13 13 11 12 11 11 9 8 7 8 7 4 7 9 9 9 10 10 9 9 11 12 10 10 11 10 10 10 9 9 8 6 8 9 10 8 6 5 5 7 8 5 3 3 4 8 8 9 8 8 11 13
7 7 7 7 7 7 7 7 7 6 6 6 6 6 6 7 7 7 7 7 7 8 8 8 8 7 7 7 7 7 8 8 10 10 8 9 11 10 11 13 12 12 10 8 7 7 5 4 7 10 10 10 9 10 9 10 12 11 10 12 12 11 12 10 10 12 8 5 8 9 10 9 8 6 5 8 10 10 7 5 6 11 10 8 7 9 12 14
5 6 7 7 7 7 7 7 7 6 6 5 6 6 6 7 7 7 7 7 7 8 8 7 7 7 7 6 6 6 6 8 10 9 8 9 9 9 10 11 12 12 10 9 8 6 5 5 7 9 11 11 10 10 8 10 13 10 9 11 11 12 14 12 12 12 8 5 6 8 9 10 10 7 7 8 10 12 10 6 6 10 10 8 8 10 13 15
5 5 5 6 6 7 7 7 7 6 6 5 5 5 6 6 6 6 7 7 7 7 7 7 7 6 5 5 5 3 5 8 8 6 5 7 8 8 8 10 11 11 11 10 8 5 7 8 8 9 9 11 10 10 9 9 11 8 8 10 9 12 14 14 13 11 7 4 6 10 11 11 11 8 8 9 9 11 11 6 6 8 9 8 8 10 13 16
5 5 5 5 5 6 6 7 7 7 6 5 5 5 5 6 6 6 6 6 6 6 6 6 6 5 4 4 3 1 5 6 5 9 9 8 8 8 7 8 10 11 11 10 8 6 8 9 9 10 9 10 10 12 9 6 8 6 8 8 7 12 14 13 13 10 6 4 7 11 12 12 12 10 9 10 11 11 11 6 7 8 8 7 7 11 13 16
5 5 5 5 5 5 6 6 7 7 7 5 5 5 5 5 5 5 5 6 6 6 6 6 6 5 4 3 2 3 4 3 8 11 10 9 8 7 6 6 8 10 12 12 9 6 9 9 8 9 10 12 14 13 6 6 10 8 9 8 6 11 14 12 13 10 4 4 8 11 11 9 10 11 10 13 14 13 12 6 8 10 9 8 8 11 14 15
6 6 6 6 6 6 6 6 6 7 6 6 5 5 5 5 4 5 5 5 6 6 6 6 6 4 4 3 3 5 3 6 11 8 7 9 8 7 5 5 7 10 12 12 9 6 9 9 9 9 10 12 11 9 6 7 9 10 11 11 7 9 14 13 12 9 4 4 8 11 10 8 8 10 13 15 15 13 13 6 9 10 8 10 10 12 14 14
6 6 6 7 7 6 6 6 6 6 6 6 5 5 5 4 4 4 5 5 5 6 6 6 5 4 3 3 4 3 4 9 10 7 9 10 9 9 6 5 7 9 11 12 9 7 8 8 9 9 11 13 11 8 7 7 8 9 11 10 8 8 13 14 12 8 5 4 8 9 9 9 8 10 14 16 16 11 12 8 9 11 9 10 11 13 14 14
6 6 6 6 7 7 7 7 7 7 7 6 5 4 4 5 4 4 5 5 6 6 6 6 5 4 3 4 5 2 5 11 12 13 14 12 11 9 7 6 7 8 10 11 9 9 10 9 8 8 10 13 11 8 6 7 9 11 8 6 7 6 9 14 14 10 6 4 3 6 8 10 8 10 13 15 16 11 14 12 9 12 12 11 12 13 14 14
6 6 6 6 6 7 8 8 8 8 8 7 6 5 5 5 5 5 5 5 6 6 6 6 5 4 3 6 7 2 9 15 14 16 16 12 11 9 8 7 7 9 11 10 8 10 12 10 9 9 9 10 8 7 7 7 6 8 7 3 6 6 7 12 14 12 10 8 2 5 6 10 10 9 12 15 15 12 15 15 10 11 13 12 13 13 13 14
6 6 6 6 6 6 7 8 8 9 9 8 7 6 6 6 5 6 6 6 7 7 7 6 6 5 5 8 10 6 11 15 13 13 12 11 10 9 8 7 8 10 11 9 9 11 12 11 11 11 10 8 6 7 8 5 3 6 8 5 6 6 8 12 13 12 11 9 3 4 5 8 11 8 12 14 12 12 15 16 12 12 13 12 14 14 14 15
6 6 7 7 6 6 6 7 8 9 9 9 8 8 8 7 7 6 7 8 8 8 8 7 8 7 7 9 9 8 10 12 13 11 8 9 10 9 8 7 9 10 10 8 9 10 12 13 11 11 11 8 8 9 6 4 5 6 8 10 10 8 7 11 12 11 10 9 7 3 5 7 11 9 11 14 12 13 16 16 12 13 13 11 13 14 14 15
6 6 7 7 7 7 6 6 7 9 9 10 10 9 9 9 9 8 8 9 9 10 9 9 10 9 10 9 8 10 10 10 15 14 9 9 10 9 7 6 10 11 12 11 10 10 12 14 13 12 10 10 10 9 5 8 7 7 12 11 11 9 9 11 12 11 9 8 9 5 5 5 8 8 11 15 14 13 15 17 14 14 15 13 13 12 13 14
7 7 7 7 8 8 7 7 7 8 9 10 10 10 10 10 10 10 10 10 11 11 11 11 11 12 12 9 10 12 11 11 16 15 12 10 8 7 7 5 9 12 15 14 14 13 11 13 15 14 10 10 9 6 7 9 7 11 16 11 9 7 9 11 12 11 10 8 9 6 4 1 3 4 10 17 17 15 14 16 16 15 15 15 13 11 12 13
8 7 7 7 8 8 8 7 7 8 9 10 10 11 10 10 10 10 11 11 12 12 12 13 12 14 13 10 12 13 9 12 15 13 12 10 6 5 8 9 7 10 14 16 17 16 13 10 12 14 10 9 9 7 9 9 9 11 12 11 9 7 11 11 9 11 12 8 9 7 4 3 2 4 9 18 20 19 17 16 17 15 15 16 15 12 12 13
10 9 8 8 8 8 8 7 7 8 9 10 10 11 11 11 11 11 11 12 13 13 13 14 12 14 13 11 13 13 10 11 13 13 10 8 2 2 9 13 10 8 12 16 16 13 11 10 11 13 12 12 13 11 7 6 13 16 15 16 12 10 13 8 5 11 13 8 8 7 5 5 5 6 9 17 20 21 20 17 16 15 14 16 15 12 13 14
10 10 10 9 8 8 9 8 8 8 9 10 10 10 11 11 11 11 12 12 13 13 14 14 13 14 13 13 14 12 12 12 12 11 8 6 2 3 11 14 9 7 10 14 15 12 10 10 11 12 12 12 12 11 7 4 14 18 19 22 17 11 11 3 3 9 14 9 6 7 6 6 6 7 9 15 19 21 21 18 16 15 13 15 16 15 16 17
11 11 11 11 9 9 9 8 8 8 9 9 9 10 10 10 11 11 12 13 13 13 13 12 13 11 8 10 10 7 11 14 12 9 8 6 4 8 14 11 5 5 8 10 13 12 11 11 11 12 13 12 11 12 9 6 14 18 13 15 14 2 11 4 4 8 15 11 5 5 5 5 5 6 7 12 15 15 19 20 17 15 14 15 17 17 17 18
11 12 13 12 11 10 10 9 8 8 9 9 9 10 10 10 10 10 12 14 14 13 9 10 13 9 3 9 9 4 8 15 10 7 9 6 5 9 10 6 4 5 7 9 11 11 11 11 12 13 14 15 13 12 11 10 12 13 9 9 13 2 13 3 5 6 9 7 5 6 2 3 4 3 4 7 10 9 14 19 17 15 15 16 16 16 18 18
12 12 14 14 12 10 10 10 9 9 9 9 10 10 9 10 8 11 15 12 12 13 9 11 15 9 4 8 9 5 9 13 10 7 10 8 6 7 6 6 7 7 9 11 11 10 12 13 15 15 14 14 13 11 11 11 9 9 9 11 15 3 13 8 5 6 4 5 4 4 1 3 5 1 3 3 8 7 10 15 17 17 16 17 16 15 18 19
14 13 14 15 14 11 10 11 10 10 10 9 10 9 9 10 7 11 18 14 11 13 12 16 17 11 6 2 10 15 11 10 10 9 11 10 6 7 8 9 10 11 11 11 11 10 12 16 17 16 14 14 13 11 7 7 8 10 11 12 13 5 14 13 9 6 6 6 3 2 1 2 3 1 3 1 4 7 9 12 16 18 17 17 16 15 19 20
15 14 14 15 15 13 11 11 11 11 10 10 10 9 10 11 10 12 18 18 15 15 14 16 18 17 12 6 11 17 11 8 10 11 13 11 7 9 10 9 11 13 10 11 13 13 14 17 17 15 15 16 13 10 8 9 10 10 12 13 11 1 12 11 7 6 8 6 2 1 1 4 2 1 4 2 1 2 6 9 12 14 14 15 16 16 18 20
15 14 14 14 15 14 12 11 11 11 10 10 9 10 11 11 12 13 16 19 16 14 16 16 16 18 17 13 15 17 11 11 11 12 16 12 8 12 10 9 11 12 11 12 14 16 17 16 15 14 15 18 15 10 10 12 12 12 10 10 8 3 8 9 11 6 4 3 4 1 2 6 5 3 5 6 4 1 2 4 7 9 11 12 14 16 18 18
16 15 14 13 15 15 13 11 12 11 11 10 9 10 11 11 13 13 15 18 19 15 15 16 15 17 18 17 19 20 14 13 12 14 18 13 10 13 12 11 11 12 14 14 14 16 18 17 12 12 14 16 15 12 11 13 13 14 11 8 8 5 5 4 12 6 2 3 4 1 2 4 5 7 5 6 8 4 2 3 5 7 8 9 11 14 17 17
16 14 13 12 14 15 14 11 11 12 11 10 10 9 10 11 12 13 14 17 18 13 10 14 16 17 17 16 18 18 13 14 14 16 20 15 11 14 12 11 12 13 13 14 15 16 18 18 11 8 12 13 14 12 12 13 13 14 12 9 9 8 10 4 4 3 5 8 5 1 0 1 2 4 5 6 10 7 3 2 4 5 5 6 8 11 14 15
15 14 12 11 12 13 15 12 10 11 11 10 9 9 10 10 11 12 13 15 14 8 6 12 14 13 14 16 18 15 12 16 15 15 22 20 12 16 12 10 12 13 11 10 14 16 16 16 14 11 12 13 12 12 12 12 13 13 10 10 8 5 6 10 9 8 3 5 5 3 4 2 2 4 5 8 10 9 7 4 5 5 3 3 4 8 13 13
15 13 12 11 10 11 13 13 11 11 11 10 9 9 10 9 9 9 9 12 11 9 10 12 12 9 9 15 19 16 9 13 13 15 21 21 13 16 15 12 11 12 10 9 12 14 13 14 15 12 11 13 14 14 13 13 15 14 8 9 8 4 8 12 12 11 4 7 10 4 4 3 6 8 6 10 11 11 11 8 7 7 4 3 2 5 10 11
15 12 11 12 11 9 10 12 12 12 11 10 10 9 9 8 7 5 5 8 4 8 11 15 13 9 9 15 20 18 8 5 12 18 21 17 12 16 16 14 13 11 10 13 13 9 8 13 13 10 10 13 13 14 16 15 15 12 7 10 9 7 11 11 10 14 9 4 8 2 2 3 6 6 5 11 13 13 13 10 9 9 7 6 5 5 7 9
15 13 11 12 12 9 9 10 10 12 11 10 10 8 8 7 4 3 6 7 3 6 12 14 12 9 12 16 17 18 11 5 10 17 19 16 13 17 16 12 12 13 12 16 17 9 4 9 13 12 12 13 13 13 15 17 15 10 7 11 10 10 12 11 10 12 12 6 1 4 3 3 4 5 6 12 14 14 13 10 9 9 8 8 8 6 7 8
15 14 12 12 12 10 10 10 9 10 10 9 8 7 7 6 2 5 8 5 3 6 10 12 11 8 13 17 16 19 17 10 7 12 17 15 13 17 17 12 11 14 14 16 19 15 8 6 9 12 14 15 14 11 8 10 14 13 11 10 11 13 12 11 10 9 9 7 5 4 7 10 6 5 8 10 10 12 11 9 11 10 9 10 9 7 6 7
15 14 12 11 12 11 11 10 8 8 8 7 6 5 5 4 4 8 7 3 4 8 8 9 10 10 14 17 17 19 20 15 10 11 15 15 14 16 16 14 13 12 14 15 17 16 13 10 11 12 15 16 13 11 8 7 11 14 12 12 12 12 10 8 9 9 7 3 4 7 9 14 8 4 9 7 4 9 10 11 14 12 10 10 9 8 6 5
15 14 13 12 12 11 12 10 8 8 8 5 5 4 3 5 9 13 11 7 6 7 7 6 9 11 14 16 16 18 20 18 15 13 14 15 16 17 17 16 14 12 13 14 15 16 17 17 15 13 16 17 13 11 10 8 10 13 13 13 11 8 6 5 5 5 5 4 7 8 4 6 5 1 7 7 4 7 7 8 13 13 11 10 7 6 7 5
15 14 13 12 11 11 12 10 9 9 7 5 5 5 4 8 12 14 16 12 4 3 2 4 9 9 12 15 16 17 19 18 17 15 15 16 15 17 19 17 15 15 13 11 12 15 17 18 19 16 15 18 16 14 14 11 11 12 12 13 11 5 4 4 4 5 5 5 7 4 2 5 1 6 6 6 6 6 3 2 7 9 10 9 8 7 8 7
13 13 12 12 11 11 10 10 10 9 8 7 7 6 7 12 14 13 14 10 3 2 3 4 7 8 12 15 15 17 19 17 18 16 15 17 16 17 19 18 18 19 16 12 12 13 13 14 19 21 16 17 17 16 17 13 10 10 10 11 11 9 7 5 4 5 5 4 4 2 1 4 1 7 7 5 6 7 5 3 4 6 5 6 8 8 8 8
12 12 11 11 11 10 9 9 10 9 8 8 8 9 12 15 14 13 8 6 7 3 2 4 7 8 12 15 14 17 19 16 17 18 16 17 18 18 18 19 20 21 19 16 12 11 12 11 11 19 15 15 16 14 15 15 12 9 10 10 11 12 12 9 9 9 8 5 4 4 0 3 3 5 5 4 6 7 6 2 5 5 5 6 6 6 8 9
11 10 10 9 10 9 8 9 9 9 9 9 9 12 16 15 13 14 8 6 7 6 5 4 7 10 12 13 13 16 18 16 16 19 18 18 19 18 18 17 18 20 20 18 14 11 12 9 9 16 11 12 14 10 12 16 13 8 8 10 12 13 9 8 11 10 9 5 2 3 1 7 6 5 6 4 2 5 5 2 5 7 6 7 5 4 8 10
10 8 7 7 8 8 8 8 8 9 10 11 12 15 16 15 14 14 11 9 8 6 8 9 7 9 12 13 13 14 17 15 14 17 17 17 19 19 19 18 17 19 19 19 17 14 13 12 8 16 12 12 12 9 12 16 14 11 6 3 7 12 8 6 8 7 6 5 3 5 1 7 4 4 6 4 2 2 1 1 4 8 8 7 6 6 9 10
10 8 5 3 5 6 7 8 8 10 10 11 15 17 15 16 14 13 12 11 11 9 9 13 10 8 11 13 13 14 17 15 13 16 16 15 17 18 19 19 17 19 18 18 18 14 12 16 10 15 14 12 12 11 14 17 17 18 12 9 9 10 6 5 6 5 6 4 2 6 2 2 1 3 5 6 5 6 5 6 6 5 7 8 8 10 11 11
8 6 3 3 2 3 5 7 8 9 11 12 15 15 12 14 14 13 13 11 11 12 11 13 15 12 12 14 14 13 18 19 16 15 15 15 14 14 17 18 17 17 17 17 17 14 13 15 9 13 11 10 12 12 14 17 17 19 17 12 10 9 7 6 6 6 7 3 3 4 2 5 5 1 2 0 5 5 4 7 7 5 7 8 8 11 10 10
11 7 3 6 6 3 3 5 8 9 11 13 15 13 12 13 12 9 8 8 8 11 12 13 15 15 13 13 16 16 14 17 18 16 15 14 12 9 12 15 15 15 16 15 15 15 14 14 12 10 8 7 11 13 13 15 16 17 16 13 10 9 10 9 7 6 6 4 4 2 2 2 4 3 4 4 5 3 1 3 4 9 11 10 8 11 10 8
14 10 6 11 10 6 4 4 7 8 11 14 14 13 14 15 13 9 8 10 9 11 13 14 15 16 15 13 15 16 14 15 18 19 18 16 14 11 8 10 13 13 14 16 16 17 16 14 15 14 12 11 11 13 13 14 17 18 17 15 12 10 11 10 7 7 7 8 6 4 2 5 4 3 4 6 3 1 1 3 5 6 10 10 8 11 10 9
9 7 10 12 10 7 3 3 6 7 11 14 14 12 14 15 14 14 14 13 12 12 13 14 15 17 17 15 15 16 16 16 17 16 18 18 18 16 11 10 13 13 14 16 16 17 16 15 16 18 16 13 13 15 16 15 15 17 17 18 13 10 10 12 10 5 4 7 7 6 4 6 7 3 2 3 1 4 2 1 4 6 6 8 8 8 7 7
6 5 7 7 6 2 1 2 7 9 11 13 13 14 16 15 13 13 14 13 12 12 11 13 14 15 16 16 17 19 18 17 18 16 14 15 17 18 16 14 16 16 15 14 14 15 16 17 18 18 19 16 15 18 17 14 10 14 17 16 12 8 9 13 13 7 4 7 8 6 0 7 6 4 2 2 2 1 3 2 5 6 3 7 8 6 5 5
8 6 5 9 10 5 2 5 9 10 11 11 12 14 12 12 13 13 14 13 12 12 12 12 12 13 14 14 16 19 18 18 19 17 15 15 16 16 16 13 14 16 15 15 13 13 15 18 18 15 14 12 14 17 14 15 9 13 14 12 12 13 14 17 14 6 5 8 8 7 2 7 5 4 4 6 6 2 3 2 4 4 1 4 5 5 6 5
9 10 6 7 10 6 2 8 10 10 12 13 13 13 9 10 12 13 14 15 14 14 14 13 12 12 12 13 15 16 17 18 19 17 16 18 19 17 15 13 11 13 15 16 16 13 12 16 21 17 12 9 9 11 10 11 11 12 13 12 14 16 18 17 12 6 7 5 4 8 4 5 5 3 5 9 7 5 4 2 4 4 2 3 3 5 7 7
8 9 7 4 5 5 5 7 8 8 10 12 13 13 11 12 12 11 13 15 13 13 14 15 15 15 14 14 15 15 16 17 19 18 18 19 19 17 17 17 15 14 15 15 15 14 15 17 19 19 16 16 13 12 10 11 12 13 14 14 14 16 17 14 12 12 9 3 3 7 4 4 5 3 7 10 8 8 7 4 6 6 3 4 6 5 6 8
8 6 9 6 2 1 3 6 8 9 10 12 13 12 12 13 13 13 13 13 11 11 14 15 15 15 16 15 15 16 16 17 19 21 22 22 21 20 20 20 18 19 21 20 17 14 14 18 16 14 16 19 19 18 16 15 15 15 16 16 14 14 15 15 16 15 10 7 6 4 3 4 4 3 8 12 9 10 9 4 5 5 2 4 7 7 7 8
7 4 7 7 2 3 6 9 11 12 12 11 11 12 12 13 13 13 12 12 14 13 13 13 13 15 16 15 16 18 17 15 16 18 18 20 20 23 25 21 17 19 22 21 22 20 18 20 20 17 18 20 20 21 20 19 19 16 16 17 16 15 15 18 20 17 12 11 8 4 4 5 5 3 8 13 10 8 9 8 5 4 4 5 6 7 7 8
9 7 6 7 6 6 8 11 11 12 12 11 11 10 10 11 11 11 12 13 13 12 10 11 13 14 14 13 14 16 15 14 15 14 14 15 14 16 21 21 19 19 20 20 22 23 23 24 23 22 23 23 23 23 22 23 24 22 19 17 17 17 15 16 18 16 15 16 15 13 10 7 6 5 6 10 8 3 6 11 9 5 6 7 6 5 6 7
12 10 9 10 9 6 7 9 10 10 10 10 9 8 7 8 9 10 11 12 12 11 11 13 16 15 15 15 13 13 12 13 12 13 14 17 15 12 15 18 15 13 16 19 20 21 24 25 22 22 25 25 24 23 23 24 25 25 25 22 20 19 17 17 17 16 18 19 16 12 10 6 5 5 7 9 7 2 4 9 10 8 8 9 9 7 7 8
14 13 12 11 10 6 5 6 9 10 9 8 8 8 9 9 10 13 13 12 13 14 13 15 18 17 17 16 13 13 16 14 12 13 13 16 18 16 15 16 12 10 12 15 18 20 23 22 20 20 23 24 23 22 23 25 26 27 28 25 23 21 19 18 18 17 18 16 10 9 12 11 8 6 7 7 5 5 6 7 10 11 10 11 12 11 11 11
14 14 13 12 10 8 7 8 9 9 9 10 10 11 12 12 13 15 16 14 11 11 12 16 18 17 16 15 15 20 24 22 20 21 20 21 24 22 20 19 15 12 12 13 14 18 20 21 20 18 19 21 21 22 23 22 21 23 25 24 23 22 20 19 19 20 18 14 11 13 15 14 11 8 9 9 6 8 10 9 11 12 10 12 13 13 14 14
Wind_Direction
292 293 294 295 295 297 298 299 297 295 294 290 289 286 283 283 281 282 283 285 284 282 280 279 281 282 281 283 285 285 285 285 281 279 278 260 253 252 247 237 224 218 217 216 231 231 228 279 319 330 326 316 308 296 307 300 291 322 331 318 336 346 335 328 323 320 317 280 234 206 203 202 190 167 152 148 125 123 109 92 123 119 134 144 130 126 130 138
291 289 290 288 289 291 292 294 294 295 295 294 292 287 287 286 286 286 286 284 280 279 277 278 279 279 284 287 287 288 289 289 287 288 282 267 265 262 246 236 227 221 213 211 229 223 218 283 309 312 306 303 298 291 303 290 291 324 326 327 352 351 334 325 320 319 318 280 238 212 201 203 198 190 179 169 148 136 125 110 111 117 134 140 129 132 133 139
305 296 291 287 287 287 288 292 293 297 298 297 295 293 293 291 294 294 290 285 280 281 278 278 278 279 286 284 291 294 301 303 296 292 282 273 276 269 251 238 229 221 210 210 217 215 239 262 283 294 295 293 293 295 298 290 302 322 313 333 5 343 328 324 321 321 313 277 231 203 199 202 197 188 180 172 151 142 134 119 122 128 138 140 135 140 138 140
333 319 305 295 290 287 289 292 292 296 296 298 297 296 296 296 301 298 295 290 285 285 281 281 279 282 284 285 297 295 338 333 313 323 313 289 287 276 261 243 231 222 208 210 209 210 248 258 279 288 288 289 293 287 281 298 315 330 325 328 351 335 322 326 328 322 312 274 208 199 202 206 200 190 184 168 150 146 133 124 151 149 147 144 140 141 143 143
342 336 325 314 303 297 295 293 293 293 292 296 295 295 296 296 299 298 298 292 289 288 284 286 283 285 283 283 287 267 25 15 328 329 324 307 298 284 270 246 229 219 206 210 207 207 250 262 272 276 280 286 292 285 278 296 302 338 349 319 345 346 324 332 338 326 311 251 205 205 207 211 207 193 181 164 156 142 120 133 163 161 163 146 140 142 143 148
335 332 330 325 317 310 306 302 297 291 290 289 289 294 292 292 295 297 298 293 291 288 287 288 283 290 281 273 240 183 89 23 303 312 315 312 311 294 274 244 225 213 207 207 196 209 252 259 264 270 278 280 289 293 296 305 288 306 329 306 343 347 327 341 345 334 320 240 202 203 211 212 207 196 181 166 160 132 108 146 170 163 174 156 149 146 144 152
330 326 324 322 320 316 313 311 303 294 290 285 283 286 285 290 290 290 293 290 289 285 285 284 285 295 276 259 212 198 185 297 299 304 302 310 321 310 281 241 220 208 208 206 190 209 240 251 262 271 281 283 298 305 308 334 320 311 310 305 338 347 332 348 348 334 327 261 202 192 204 199 188 194 191 172 164 135 110 155 180 168 176 164 153 145 150 156
333 324 320 317 314 312 311 311 307 301 294 288 282 278 278 281 280 283 282 282 284 282 282 281 286 289 271 239 196 197 274 295 303 309 301 304 313 310 288 245 217 206 206 201 192 212 235 249 256 270 282 286 314 322 299 331 344 318 305 311 344 353 332 342 353 342 331 275 214 187 193 190 167 184 194 176 172 157 129 150 177 164 162 163 154 149 158 158
337 330 322 314 311 307 305 304 304 302 298 293 287 279 270 269 268 270 271 275 277 277 279 278 283 279 253 211 179 110 292 279 291 296 294 298 299 297 280 247 213 204 203 197 192 212 233 239 250 284 287 283 305 314 306 341 337 318 323 338 346 353 329 340 0 3 2 342 219 171 184 191 171 182 191 176 177 173 148 151 172 163 157 167 161 160 165 156
338 334 325 316 311 306 303 301 299 297 295 293 290 283 272 267 262 263 265 268 269 273 277 276 278 268 238 209 183 141 282 273 279 282 285 292 290 286 270 241 209 199 196 200 207 218 230 237 260 280 280 287 296 285 304 345 337 321 344 350 319 339 351 347 359 8 12 15 84 148 177 192 182 178 177 176 175 170 156 149 164 166 158 170 165 168 171 158
336 331 325 319 311 307 304 300 297 294 293 291 288 281 274 268 261 261 260 262 266 269 273 274 273 260 239 222 200 210 273 281 282 278 281 286 287 287 270 232 209 200 189 201 222 228 232 242 271 268 263 295 301 294 313 342 340 333 351 346 315 335 2 357 359 1 9 23 50 160 182 191 193 185 173 180 172 168 165 145 161 179 162 172 171 171 176 165
331 325 322 317 311 309 302 302 300 294 291 289 286 279 273 269 263 258 254 261 264 266 270 267 267 258 244 235 215 230 266 281 287 289 286 285 293 292 273 229 210 199 190 208 229 244 244 240 260 260 259 284 294 312 332 327 314 320 335 337 334 326 325 347 359 358 7 26 28 125 170 192 205 206 183 185 178 175 174 149 164 190 165 169 177 176 179 171
326 320 317 312 309 307 302 306 301 294 291 288 286 280 275 271 267 262 256 258 260 262 264 261 264 261 255 243 222 243 259 265 279 291 296 294 301 294 277 229 211 202 195 204 225 248 257 247 243 246 260 270 286 323 316 291 309 322 320 319 333 319 282 318 348 359 11 22 25 82 143 194 207 215 196 193 192 187 182 163 167 187 172 169 179 179 179 176
324 317 313 310 309 307 305 308 303 297 292 287 286 284 283 280 274 270 265 262 262 262 259 260 264 262 264 260 247 255 259 257 268 283 293 300 309 298 289 256 224 215 202 202 214 218 230 246 242 237 252 259 274 312 265 273 321 337 325 306 314 307 260 296 333 0 15 17 21 63 102 166 206 232 208 201 201 195 191 183 180 184 178 170 176 182 180 182
324 319 313 310 307 307 307 308 305 299 292 289 288 286 288 286 282 278 271 267 264 264 263 263 264 266 271 269 266 273 271 263 265 275 286 294 304 272 274 287 263 226 214 213 214 213 210 220 235 236 248 260 263 271 254 273 306 311 306 286 293 274 248 286 331 8 12 9 22 51 56 5 299 274 222 206 203 199 195 196 195 190 182 173 173 181 185 188
323 319 315 311 306 305 305 307 305 300 296 293 291 291 291 288 286 281 276 272 267 266 266 266 266 269 273 268 271 283 287 277 270 272 276 275 292 200 254 278 283 242 224 223 216 220 225 219 230 238 249 260 257 253 235 276 294 286 273 263 270 245 234 270 336 12 11 6 20 45 56 8 307 273 230 206 199 199 197 198 201 195 186 179 176 181 189 190
320 316 316 312 308 305 304 306 302 299 298 296 297 296 293 291 287 282 278 274 269 267 267 269 271 272 279 278 275 286 292 286 273 267 267 257 146 137 249 266 285 256 225 227 219 216 230 230 233 238 247 254 254 245 217 266 291 280 256 245 260 247 206 205 9 4 12 23 22 38 65 32 327 280 240 212 200 196 198 199 200 199 195 189 185 189 194 193
318 316 315 311 312 310 306 305 300 298 297 298 302 300 299 296 289 286 281 275 270 267 270 275 271 276 305 296 282 296 285 276 276 262 257 262 177 190 243 260 284 248 216 226 225 222 228 229 236 241 246 243 239 241 223 239 278 280 264 250 279 266 152 137 16 3 11 32 29 21 60 43 354 296 250 210 202 200 203 199 193 198 204 204 199 197 200 203
315 315 313 312 313 312 309 306 301 298 297 299 303 305 306 300 298 297 281 275 273 265 271 285 267 247 307 318 313 328 253 255 268 251 243 261 222 213 235 239 240 228 207 220 227 227 223 224 234 237 244 241 232 243 249 251 269 286 298 291 301 72 128 96 23 33 19 47 29 7 49 63 56 340 297 197 197 208 207 203 198 202 206 210 213 209 208 210
312 311 310 310 310 312 310 307 305 299 298 301 302 308 309 303 317 309 287 283 280 262 239 260 268 239 214 308 298 223 220 248 254 234 236 246 232 226 225 205 217 223 209 216 223 220 216 224 234 232 240 246 236 241 258 263 264 282 290 291 302 336 122 127 117 98 65 93 54 24 82 63 89 67 341 190 209 226 218 214 213 212 209 210 219 224 218 217
310 307 306 306 306 311 309 307 308 301 300 300 300 307 303 298 303 291 288 295 289 268 235 234 257 257 212 238 251 231 231 259 247 220 231 239 221 215 221 206 209 222 217 218 222 213 217 231 237 238 243 250 253 253 262 274 266 280 283 279 305 2 118 130 138 116 64 85 83 29 61 48 61 270 318 1 231 230 223 220 214 211 210 213 220 227 223 222
311 307 304 302 303 308 309 307 304 302 301 298 300 300 293 293 288 279 285 291 283 274 260 237 240 249 236 200 234 244 239 245 237 214 223 236 213 198 216 216 209 220 222 221 224 215 217 236 241 244 248 249 259 269 272 280 275 279 283 278 290 179 130 117 111 98 61 81 152 346 197 189 138 285 276 264 295 263 228 216 207 207 213 221 223 225 225 225
313 310 305 300 300 304 307 307 302 301 300 297 298 293 290 295 294 292 290 288 284 271 265 258 243 238 235 219 231 244 227 222 230 213 219 231 198 184 203 222 216 222 225 219 226 225 223 236 239 236 247 250 256 273 268 266 268 260 267 286 284 173 125 115 130 142 55 70 233 249 196 227 199 195 256 241 219 290 278 212 197 205 216 226 225 226 230 230
316 315 308 300 297 300 303 307 305 302 301 299 294 289 293 296 295 300 296 291 291 275 254 258 254 237 230 221 233 247 234 225 227 212 226 235 195 190 206 221 227 232 231 224 228 237 240 247 249 232 237 247 251 265 260 254 263 253 245 264 264 277 335 104 134 161 230 165 210 169 149 261 239 207 231 238 228 244 293 191 188 204 211 217 221 224 230 230
316 317 314 303 294 296 299 304 308 304 302 297 291 289 293 298 300 303 301 297 296 286 241 233 239 235 230 218 226 244 240 228 220 211 234 244 198 199 217 224 233 237 235 233 230 241 252 257 268 248 236 246 247 252 252 249 267 268 265 285 289 301 315 320 125 215 222 172 175 18 90 268 277 215 206 220 234 243 268 212 194 209 207 212 221 222 225 226
311 315 316 305 293 293 296 301 310 309 307 302 299 298 296 300 304 304 305 297 284 262 211 214 224 232 227 213 214 225 233 230 218 208 235 249 211 197 217 227 233 236 239 247 238 243 254 253 255 247 244 255 250 251 251 243 254 260 268 299 320 348 306 281 269 265 269 146 147 26 350 318 313 265 213 207 225 235 251 252 214 216 214 198 208 218 222 221
306 311 311 303 293 288 292 300 309 311 312 308 304 298 297 303 303 309 312 289 256 205 200 204 212 233 213 207 209 201 214 230 213 201 223 243 221 195 215 227 231 239 239 250 248 240 244 246 245 237 240 249 244 249 244 232 248 253 265 293 295 295 274 279 288 289 323 102 120 89 6 323 282 273 234 203 212 225 235 241 225 227 248 231 196 219 221 214
301 304 304 299 293 284 285 294 302 306 308 305 300 295 298 299 295 313 311 284 238 177 207 207 217 240 194 206 214 198 198 217 199 199 208 227 217 197 217 225 228 245 237 242 247 226 223 240 239 230 238 240 233 242 235 221 238 249 278 303 297 301 295 295 297 288 291 90 113 132 326 311 256 244 219 203 210 224 225 228 238 242 247 232 221 238 231 217
299 298 297 293 290 285 280 282 289 297 303 303 300 295 296 296 293 301 276 268 234 194 218 216 229 239 190 206 217 198 200 206 198 203 202 215 211 195 213 225 233 252 245 242 246 237 243 239 227 227 235 229 220 241 239 216 223 248 301 313 295 283 278 274 275 286 304 322 270 219 225 251 216 172 191 208 214 228 221 215 241 245 233 223 221 233 235 219
298 294 291 288 287 285 277 277 277 284 294 298 296 295 293 287 269 265 253 239 208 203 221 222 224 216 186 198 208 197 201 207 197 195 194 211 215 199 213 229 239 251 249 245 244 249 270 249 225 229 227 225 234 266 271 218 229 263 297 304 284 269 266 272 282 295 309 309 310 288 215 210 204 166 200 218 218 225 219 217 242 245 235 232 226 225 227 214
297 291 286 282 283 283 277 277 276 273 280 286 286 287 284 271 248 255 256 266 245 215 222 226 209 201 192 195 201 198 201 206 195 188 191 203 214 210 218 228 231 242 246 244 239 239 243 234 235 237 229 235 253 270 270 240 244 262 278 284 283 279 277 284 287 281 277 283 315 297 228 213 228 206 206 225 230 215 210 222 239 248 246 238 229 228 230 218
294 287 282 278 278 279 275 275 271 265 264 266 259 250 262 262 243 240 249 281 274 227 222 207 188 200 199 198 205 200 202 210 202 199 201 201 208 212 217 222 218 221 230 231 229 228 231 235 238 237 230 229 238 249 244 235 234 242 254 264 272 283 281 278 287 271 251 257 271 272 251 235 251 172 193 206 196 203 207 221 236 254 264 249 233 232 232 229
293 285 279 274 273 275 274 271 267 260 253 241 228 206 213 247 248 245 251 262 249 170 228 205 190 201 201 202 211 202 203 213 206 204 209 209 216 217 218 223 218 224 235 233 233 228 224 228 226 227 226 217 220 234 233 218 207 218 237 243 246 265 278 266 274 275 265 284 287 270 338 313 273 109 140 175 154 163 159 170 231 261 276 253 226 221 235 240
297 285 276 269 269 272 271 265 259 254 244 226 207 190 212 242 255 262 265 276 276 184 270 242 202 204 206 209 215 203 204 216 210 208 213 213 222 221 220 224 222 231 245 250 258 248 242 239 216 212 216 207 213 230 236 239 223 211 228 246 255 251 247 260 277 294 293 292 297 249 243 317 337 117 129 149 138 161 174 136 201 252 265 238 227 222 230 237
305 291 278 266 263 265 267 261 253 248 237 214 196 206 225 239 253 260 269 347 6 343 276 236 217 225 216 212 224 211 206 219 212 208 217 217 223 226 222 225 223 228 240 248 255 248 268 286 207 199 211 201 207 227 239 254 253 222 212 232 259 255 247 266 271 270 279 271 277 275 262 58 78 119 134 140 144 184 222 177 162 198 214 208 220 216 204 215
313 299 282 267 258 258 260 254 246 241 228 204 203 227 236 242 261 274 289 354 352 337 329 272 229 238 226 210 227 221 213 228 219 210 223 223 226 232 227 227 223 221 232 243 252 252 273 297 169 179 205 196 202 228 227 234 251 252 228 225 245 252 249 279 282 284 304 306 288 280 85 92 92 113 132 142 168 207 265 308 157 174 203 201 191 196 187 197
318 312 296 276 259 253 251 246 240 235 219 202 215 234 242 250 269 286 299 316 315 310 306 292 253 238 239 222 223 217 214 231 222 212 227 228 227 232 230 231 225 220 226 235 254 272 283 288 211 182 196 196 204 236 225 224 241 246 256 307 271 258 259 277 290 313 310 274 275 290 223 126 134 164 168 202 246 171 151 324 196 195 200 192 183 193 187 193
323 322 319 300 269 256 244 235 231 224 211 210 230 241 246 253 270 292 297 297 299 293 283 282 271 253 255 245 230 210 204 217 219 216 229 234 231 228 225 231 226 221 227 230 243 262 275 285 253 185 195 215 211 229 230 222 230 238 261 323 300 276 281 239 239 289 280 247 299 307 313 109 207 201 204 229 189 159 171 188 206 217 204 204 205 198 193 204
347 342 338 356 330 269 241 230 226 215 208 220 242 252 257 262 275 289 289 284 289 288 275 270 272 269 267 263 255 229 204 207 218 223 229 234 234 224 217 225 226 219 220 222 232 244 258 277 257 181 197 230 207 215 234 224 221 238 260 280 272 274 286 252 233 262 281 302 308 291 19 9 329 67 85 224 150 157 217 202 186 181 204 230 225 208 209 221
32 38 311 329 356 328 267 236 220 210 216 232 245 256 266 275 280 284 288 289 285 281 273 270 273 272 272 273 272 266 237 221 223 226 230 229 226 222 214 219 226 220 213 214 228 238 240 257 260 217 192 204 206 214 231 229 218 218 229 237 236 244 256 267 269 253 260 272 255 256 76 45 330 32 82 97 124 140 280 265 217 195 218 245 225 213 230 233
53 59 280 298 336 331 286 242 228 223 234 247 252 259 266 273 275 276 290 299 291 280 274 274 277 276 281 284 276 279 280 259 238 226 227 230 226 228 224 217 224 222 211 212 225 235 233 241 260 249 209 198 220 226 222 234 234 220 218 226 227 232 245 260 255 221 250 279 276 292 257 153 106 45 99 115 126 231 312 317 294 243 244 256 227 221 237 231
58 34 294 295 317 312 277 232 247 247 248 256 260 263 270 277 279 275 279 288 288 282 276 273 275 275 278 279 274 281 291 281 260 236 225 230 232 230 227 219 223 227 223 219 222 227 232 243 255 258 247 229 231 230 218 223 237 235 242 250 242 226 230 253 263 235 241 285 294 290 262 132 107 83 86 94 274 293 335 189 262 297 275 247 237 236 231 219
48 10 313 324 343 345 108 250 263 256 254 263 269 270 270 274 279 279 278 281 280 278 276 270 271 272 270 270 271 277 284 282 276 267 251 245 241 237 241 235 220 220 230 231 226 218 222 239 250 260 267 260 259 253 221 199 230 251 252 259 257 235 220 241 263 274 260 269 276 275 216 106 130 180 168 79 125 287 336 202 243 299 277 221 237 240 213 208
43 47 8 351 359 45 99 293 290 280 277 281 286 285 276 267 274 280 278 276 275 278 280 271 269 271 268 267 268 268 272 273 271 273 269 262 256 250 254 249 215 210 225 229 225 218 214 223 234 253 269 256 260 267 226 187 225 260 253 256 261 263 263 257 249 228 235 261 276 289 15 110 158 206 154 134 133 173 296 287 250 276 219 203 238 244 231 221
45 42 24 334 334 354 324 300 305 300 299 303 298 297 294 281 283 282 276 277 276 272 274 273 272 276 274 274 272 264 263 264 263 264 258 256 259 255 255 256 226 210 220 222 222 235 245 229 214 221 254 246 232 255 235 203 224 242 241 250 259 263 270 277 279 254 229 228 254 282 286 155 187 244 176 167 172 207 241 274 241 233 228 221 237 252 242 224
52 25 347 294 303 322 306 305 312 306 306 308 300 297 298 294 290 283 278 281 279 271 271 271 271 274 276 276 276 269 262 260 261 263 260 255 255 251 246 249 241 226 226 229 229 243 269 259 221 207 234 253 247 250 252 246 249 250 247 245 246 252 256 262 274 274 270 284 278 274 269 191 198 218 187 179 187 217 231 246 229 222 228 219 218 235 227 215
47 5 325 334 42 34 325 318 303 299 307 308 301 296 294 293 291 288 283 276 273 278 279 270 266 269 269 269 272 271 266 263 259 256 258 261 259 257 254 247 236 234 239 245 249 250 262 264 248 224 231 246 255 257 254 256 260 263 266 263 252 249 251 246 244 252 264 277 263 224 196 224 239 209 187 185 199 237 246 234 207 207 202 191 201 210 206 208
23 353 332 349 347 252 292 296 286 296 309 305 297 292 288 289 287 287 291 281 272 278 278 272 269 268 265 265 273 274 268 268 267 257 259 266 263 263 265 253 233 237 243 245 248 248 249 249 246 244 245 247 253 256 255 257 259 252 253 265 264 252 246 240 236 237 245 253 249 213 197 241 266 252 207 206 224 254 243 228 219 198 174 172 183 193 201 215
1 355 338 331 320 295 294 293 294 309 313 303 302 298 289 293 292 290 296 296 288 280 271 275 280 275 268 271 284 288 274 263 270 273 278 279 263 262 269 255 236 236 238 238 242 239 239 243 242 246 255 256 254 253 250 250 254 253 251 256 261 260 257 248 240 242 247 246 245 245 243 251 264 254 201 203 222 242 218 226 233 215 199 204 202 187 193 215
354 351 337 331 333 321 306 310 313 315 310 302 306 305 293 299 309 308 303 302 301 290 272 278 288 289 280 274 287 299 274 252 266 285 297 292 267 254 266 260 250 249 239 234 237 233 231 237 239 243 253 257 256 254 251 246 245 248 249 248 249 251 258 257 251 255 257 247 241 247 253 252 248 229 192 195 208 194 201 223 230 227 230 238 238 227 217 218
349 345 342 339 337 338 343 330 319 318 312 287 282 304 312 305 304 306 302 293 290 288 284 285 286 287 282 267 268 280 266 255 268 274 279 283 266 251 257 258 262 282 267 244 233 228 227 229 231 238 246 251 254 253 253 254 252 248 245 245 246 246 250 254 252 259 269 265 252 256 262 252 231 209 198 193 205 238 252 255 248 240 241 247 244 236 230 224
345 344 343 339 344 11 11 327 313 321 307 275 267 289 302 302 302 305 304 297 284 278 285 285 277 277 280 267 260 269 269 265 265 254 245 248 250 249 253 254 253 265 278 271 245 227 224 224 224 234 245 248 249 250 253 259 260 254 247 245 248 250 253 256 253 254 268 276 260 249 252 243 222 196 181 161 166 237 259 273 260 243 242 251 242 227 224 222
Height
3173 3173 3172 3172 3172 3171 3171 3171 3170 3170 3170 3169 3169 3168 3168 3168 3167 3167 3167 3167 3166 3166 3166 3165 3165 3165 3165 3165 3165 3164 3164 3164 3163 3163 3163 3163 3162 3163 3164 3164 3165 3166 3166 3166 3167 3167 3167 3168 3168 3168 3169 3169 3170 3170 3170 3170 3169 3168 3167 3167 3167 3166 3164 3164 3162 3161 3161 3160 3160 3160 3161 3161 3162 3162 3162 3162 3163 3166 3168 3167 3165 3165 3164 3163 3163 3164 3165 3165
3173 3173 3172 3172 3172 3171 3171 3171 3170 3170 3170 3169 3169 3168 3168 3168 3167 3167 3167 3166 3166 3166 3165 3165 3165 3165 3165 3165 3164 3164 3164 3163 3163 3162 3162 3162 3161 3162 3163 3163 3164 3165 3166 3166 3166 3166 3167 3169 3170 3171 3171 3171 3171 3171 3171 3169 3168 3169 3168 3167 3166 3165 3165 3164 3163 3161 3160 3159 3159 3160 3161 3161 3162 3163 3163 3162 3163 3165 3167 3167 3165 3165 3164 3164 3165 3165 3166 3166
3173 3172 3172 3172 3171 3171 3171 3170 3170 3170 3170 3169 3169 3168 3168 3168 3167 3167 3166 3166 3166 3165 3165 3165 3165 3165 3165 3165 3164 3164 3164 3163 3162 3162 3162 3161 3161 3162 3162 3163 3164 3164 3165 3166 3166 3167 3168 3170 3172 3173 3172 3171 3171 3171 3171 3169 3168 3169 3167 3167 3167 3166 3165 3164 3162 3161 3160 3159 3159 3160 3160 3161 3162 3163 3163 3163 3164 3165 3166 3167 3166 3166 3165 3165 3165 3166 3167 3167
3173 3172 3172 3171 3171 3171 3170 3170 3170 3169 3169 3169 3169 3168 3168 3167 3167 3167 3166 3166 3165 3165 3165 3165 3165 3165 3165 3164 3164 3164 3164 3163 3161 3161 3161 3161 3161 3161 3162 3162 3163 3164 3165 3165 3165 3167 3169 3170 3171 3172 3172 3171 3171 3171 3171 3170 3169 3169 3167 3167 3168 3167 3165 3163 3162 3160 3159 3159 3159 3160 3159 3160 3161 3162 3163 3163 3165 3165 3166 3168 3168 3166 3165 3165 3166 3167 3167 3168
3173 3172 3172 3171 3171 3171 3170 3170 3169 3169 3169 3169 3168 3168 3168 3167 3167 3166 3166 3165 3165 3165 3164 3164 3164 3164 3165 3164 3164 3164 3164 3163 3161 3161 3161 3161 3161 3161 3161 3162 3162 3163 3164 3165 3165 3167 3169 3170 3172 3172 3172 3171 3171 3170 3170 3170 3169 3169 3168 3167 3167 3166 3165 3163 3161 3159 3159 3159 3158 3159 3159 3160 3160 3161 3162 3163 3165 3166 3166 3168 3168 3167 3166 3166 3166 3167 3168 3169
3173 3173 3172 3171 3171 3170 3170 3170 3169 3169 3169 3168 3168 3168 3167 3167 3167 3166 3166 3165 3165 3165 3164 3164 3164 3164 3164 3164 3165 3164 3164 3164 3162 3161 3161 3161 3160 3160 3161 3161 3162 3163 3163 3164 3165 3167 3170 3171 3171 3172 3172 3171 3170 3169 3170 3168 3167 3168 3168 3167 3167 3166 3165 3162 3161 3159 3158 3158 3158 3159 3160 3160 3159 3160 3162 3163 3165 3166 3167 3168 3169 3168 3167 3167 3168 3168 3169 3170
3173 3173 3172 3171 3171 3170 3170 3169 3169 3169 3169 3168 3168 3168 3167 3167 3167 3166 3166 3165 3165 3165 3164 3164 3164 3164 3164 3164 3164 3164 3164 3163 3161 3161 3161 3161 3161 3160 3160 3161 3161 3162 3163 3164 3164 3167 3170 3171 3171 3172 3172 3171 3169 3170 3169 3167 3168 3168 3167 3169 3168 3166 3165 3163 3161 3159 3158 3158 3157 3159 3160 3160 3160 3161 3162 3164 3165 3166 3167 3169 3169 3168 3168 3168 3169 3169 3170 3171
3174 3173 3172 3171 3171 3170 3170 3169 3169 3169 3168 3168 3168 3167 3167 3167 3166 3166 3166 3165 3165 3164 3164 3164 3164 3164 3164 3164 3164 3164 3164 3162 3161 3161 3161 3161 3161 3160 3160 3161 3161 3162 3162 3163 3164 3167 3170 3171 3171 3172 3172 3170 3169 3170 3169 3168 3168 3167 3167 3169 3168 3167 3166 3163 3161 3159 3158 3157 3157 3160 3161 3161 3162 3162 3163 3164 3165 3166 3166 3169 3169 3169 3169 3169 3170 3171 3171 3172
3174 3173 3172 3171 3171 3170 3170 3169 3169 3169 3168 3168 3168 3167 3167 3166 3166 3166 3165 3165 3165 3164 3164 3164 3164 3164 3164 3164 3164 3164 3163 3161 3160 3160 3160 3160 3160 3160 3160 3160 3161 3161 3162 3163 3164 3167 3170 3170 3171 3172 3172 3170 3170 3170 3168 3169 3168 3167 3168 3168 3168 3168 3166 3163 3161 3160 3159 3158 3158 3160 3162 3163 3164 3164 3164 3164 3165 3166 3166 3168 3169 3170 3170 3171 3171 3172 3172 3173
3174 3173 3172 3171 3171 3170 3170 3169 3169 3168 3168 3168 3167 3167 3167 3166 3166 3166 3165 3165 3164 3164 3164 3164 3164 3164 3164 3163 3163 3164 3162 3160 3160 3160 3159 3159 3160 3160 3160 3160 3160 3161 3162 3163 3165 3167 3169 3170 3171 3172 3171 3170 3170 3170 3168 3169 3169 3167 3168 3168 3168 3167 3165 3163 3162 3160 3159 3159 3159 3161 3163 3164 3164 3164 3165 3165 3165 3166 3167 3168 3169 3170 3171 3172 3172 3173 3173 3174
3174 3173 3172 3171 3171 3170 3170 3169 3169 3168 3168 3167 3167 3167 3166 3166 3166 3165 3165 3165 3164 3164 3164 3163 3163 3163 3163 3163 3163 3163 3161 3160 3159 3159 3159 3159 3159 3159 3159 3159 3160 3161 3162 3163 3166 3167 3168 3169 3170 3170 3170 3170 3171 3170 3168 3167 3168 3168 3168 3168 3167 3166 3164 3163 3162 3161 3160 3160 3160 3161 3163 3163 3163 3164 3165 3166 3165 3166 3167 3168 3170 3171 3171 3172 3173 3174 3174 3175
3174 3173 3172 3171 3171 3170 3169 3169 3168 3168 3167 3167 3167 3166 3166 3166 3165 3165 3165 3164 3164 3163 3163 3163 3162 3162 3162 3162 3162 3162 3161 3160 3158 3158 3158 3158 3158 3158 3158 3159 3159 3160 3162 3164 3166 3168 3168 3168 3169 3170 3170 3170 3170 3171 3168 3166 3168 3168 3168 3167 3166 3165 3164 3163 3162 3161 3160 3160 3160 3161 3162 3162 3162 3164 3165 3166 3165 3167 3168 3167 3169 3170 3171 3172 3173 3174 3174 3175
3174 3173 3172 3171 3170 3170 3169 3169 3168 3167 3167 3166 3166 3166 3165 3165 3165 3165 3164 3164 3163 3163 3163 3162 3162 3161 3161 3161 3161 3161 3160 3160 3158 3157 3158 3158 3158 3157 3157 3158 3159 3160 3161 3163 3166 3168 3168 3167 3168 3168 3169 3170 3170 3171 3168 3166 3168 3168 3166 3166 3166 3165 3163 3162 3162 3161 3160 3160 3160 3160 3162 3162 3162 3163 3165 3166 3166 3167 3168 3167 3168 3170 3170 3172 3173 3174 3174 3175
3174 3173 3172 3171 3170 3170 3169 3168 3167 3167 3166 3166 3165 3165 3165 3164 3164 3164 3163 3163 3163 3162 3162 3161 3161 3160 3160 3160 3160 3160 3160 3160 3158 3158 3157 3157 3157 3156 3157 3157 3158 3159 3160 3161 3163 3164 3165 3166 3166 3167 3168 3169 3169 3170 3167 3166 3169 3167 3166 3165 3164 3164 3162 3161 3161 3161 3160 3160 3160 3160 3161 3162 3161 3163 3163 3164 3165 3166 3167 3167 3167 3168 3170 3171 3173 3174 3174 3175
3173 3172 3172 3171 3170 3169 3168 3168 3167 3166 3166 3165 3165 3164 3164 3164 3163 3163 3163 3162 3162 3162 3161 3161 3161 3160 3159 3160 3159 3158 3159 3159 3158 3158 3157 3157 3157 3157 3158 3157 3158 3158 3159 3160 3161 3161 3162 3164 3165 3166 3167 3168 3169 3170 3167 3166 3168 3167 3166 3164 3162 3162 3160 3160 3160 3159 3159 3159 3160 3159 3161 3161 3160 3161 3162 3162 3164 3164 3165 3166 3167 3168 3169 3170 3172 3173 3174 3174
3173 3172 3171 3170 3170 3169 3168 3167 3167 3166 3165 3164 3164 3163 3163 3163 3163 3162 3162 3161 3161 3161 3160 3160 3160 3159 3159 3159 3157 3157 3158 3157 3157 3157 3157 3157 3157 3159 3159 3158 3157 3157 3158 3159 3159 3161 3162 3163 3165 3166 3167 3168 3169 3169 3167 3167 3167 3165 3165 3162 3159 3158 3156 3158 3158 3157 3158 3158 3159 3159 3161 3162 3159 3159 3160 3159 3161 3163 3164 3165 3166 3168 3168 3169 3171 3172 3173 3173
3172 3171 3170 3169 3169 3168 3167 3167 3166 3165 3165 3164 3163 3163 3162 3162 3162 3161 3161 3160 3160 3160 3160 3159 3159 3159 3158 3157 3157 3157 3156 3156 3156 3156 3156 3157 3157 3160 3160 3158 3157 3157 3157 3158 3159 3161 3162 3163 3164 3165 3166 3166 3167 3168 3166 3167 3166 3162 3161 3158 3155 3154 3154 3157 3157 3156 3157 3157 3159 3159 3160 3162 3160 3158 3157 3157 3159 3161 3162 3163 3165 3166 3167 3168 3169 3169 3170 3171
3171 3170 3169 3168 3168 3167 3166 3166 3165 3164 3164 3163 3163 3162 3162 3161 3160 3160 3160 3159 3159 3159 3159 3158 3158 3158 3157 3156 3156 3157 3156 3155 3155 3155 3156 3156 3157 3159 3159 3157 3158 3157 3157 3158 3159 3160 3162 3163 3164 3165 3165 3165 3166 3166 3164 3166 3165 3160 3159 3157 3154 3153 3154 3156 3156 3156 3156 3157 3159 3160 3160 3162 3160 3157 3156 3157 3159 3160 3161 3162 3163 3165 3166 3166 3167 3168 3169 3169
3170 3169 3168 3167 3167 3166 3165 3165 3164 3164 3163 3162 3162 3161 3161 3160 3159 3159 3158 3158 3157 3158 3158 3157 3157 3157 3157 3156 3156 3157 3157 3155 3155 3155 3155 3156 3156 3157 3158 3157 3158 3158 3158 3160 3160 3161 3162 3163 3164 3164 3164 3163 3163 3164 3163 3163 3162 3161 3159 3157 3155 3153 3153 3155 3155 3155 3156 3157 3159 3160 3161 3161 3160 3158 3156 3157 3159 3160 3161 3162 3162 3164 3165 3165 3166 3167 3168 3168
3169 3168 3167 3166 3165 3165 3164 3164 3163 3162 3162 3161 3161 3160 3160 3159 3159 3158 3156 3156 3156 3156 3157 3155 3154 3156 3156 3158 3157 3156 3156 3155 3155 3156 3155 3156 3156 3156 3157 3158 3159 3159 3159 3161 3161 3161 3162 3163 3163 3162 3162 3161 3161 3162 3161 3161 3161 3161 3159 3156 3154 3151 3151 3153 3153 3154 3156 3157 3159 3160 3161 3160 3160 3159 3157 3157 3158 3159 3160 3161 3162 3162 3163 3164 3165 3166 3167 3168
3168 3167 3166 3165 3164 3164 3163 3162 3162 3161 3161 3160 3160 3160 3159 3158 3158 3157 3153 3154 3155 3154 3155 3154 3153 3154 3156 3159 3158 3155 3155 3155 3155 3156 3156 3155 3156 3157 3157 3158 3159 3160 3159 3161 3161 3162 3162 3162 3161 3160 3161 3160 3159 3159 3159 3160 3160 3160 3159 3156 3153 3151 3151 3152 3153 3154 3155 3157 3158 3159 3161 3161 3160 3159 3158 3157 3158 3158 3158 3159 3160 3161 3162 3163 3163 3165 3166 3166
3167 3166 3165 3164 3163 3163 3162 3161 3161 3160 3160 3159 3159 3158 3158 3157 3157 3156 3153 3152 3152 3152 3152 3152 3152 3153 3154 3158 3156 3153 3155 3155 3155 3156 3155 3155 3155 3157 3158 3158 3159 3160 3160 3160 3161 3161 3161 3160 3159 3159 3160 3159 3158 3158 3159 3160 3160 3159 3158 3155 3152 3151 3151 3152 3153 3153 3154 3156 3158 3158 3159 3160 3160 3159 3159 3158 3157 3157 3157 3157 3158 3159 3160 3161 3162 3163 3163 3164
3165 3165 3164 3163 3162 3161 3161 3160 3160 3159 3159 3158 3158 3157 3157 3156 3155 3155 3153 3151 3150 3150 3150 3150 3150 3151 3153 3156 3154 3152 3155 3156 3155 3156 3154 3154 3155 3156 3158 3158 3159 3159 3160 3160 3160 3159 3158 3157 3157 3158 3158 3158 3157 3158 3159 3159 3159 3158 3156 3153 3151 3150 3150 3151 3152 3153 3153 3154 3156 3156 3158 3159 3159 3159 3159 3158 3157 3156 3156 3156 3156 3157 3159 3160 3161 3161 3161 3162
3164 3163 3162 3161 3160 3160 3160 3159 3159 3158 3158 3157 3157 3156 3155 3155 3154 3153 3152 3150 3148 3147 3148 3148 3149 3150 3151 3154 3153 3151 3153 3155 3155 3156 3153 3153 3155 3156 3157 3158 3159 3159 3158 3159 3159 3158 3156 3154 3155 3156 3156 3156 3156 3157 3158 3158 3156 3154 3153 3151 3149 3148 3149 3149 3150 3152 3153 3153 3153 3155 3157 3158 3158 3159 3159 3159 3158 3157 3156 3156 3155 3156 3157 3158 3159 3160 3160 3161
3162 3161 3161 3160 3159 3158 3158 3158 3158 3157 3156 3156 3155 3155 3154 3154 3153 3152 3151 3149 3146 3144 3146 3147 3148 3149 3150 3152 3152 3150 3152 3152 3154 3155 3152 3151 3155 3156 3157 3158 3158 3157 3157 3157 3157 3157 3155 3154 3155 3155 3155 3155 3155 3156 3157 3156 3155 3153 3150 3150 3147 3147 3150 3150 3149 3151 3151 3152 3153 3154 3156 3157 3157 3158 3158 3158 3158 3156 3156 3156 3156 3156 3156 3157 3157 3158 3159 3159
3160 3160 3159 3158 3158 3157 3157 3157 3157 3156 3155 3155 3154 3154 3154 3153 3153 3152 3150 3148 3145 3144 3145 3146 3147 3147 3148 3150 3150 3150 3152 3151 3151 3154 3151 3150 3154 3155 3156 3157 3156 3156 3156 3156 3156 3155 3154 3154 3154 3154 3155 3155 3155 3155 3155 3156 3155 3152 3149 3149 3148 3149 3152 3152 3149 3149 3148 3148 3152 3154 3156 3157 3156 3156 3157 3157 3157 3156 3156 3155 3155 3155 3155 3156 3157 3157 3158 3159
3159 3158 3157 3157 3156 3156 3155 3155 3155 3155 3155 3154 3154 3154 3153 3153 3152 3151 3151 3147 3143 3143 3144 3145 3146 3146 3147 3148 3148 3149 3151 3149 3150 3152 3151 3149 3152 3154 3154 3156 3156 3155 3155 3155 3154 3152 3153 3153 3152 3153 3154 3154 3154 3154 3154 3154 3153 3150 3149 3149 3149 3150 3152 3151 3149 3148 3146 3146 3149 3152 3155 3156 3155 3154 3155 3156 3157 3156 3155 3155 3155 3155 3156 3156 3156 3156 3157 3158
3157 3157 3156 3155 3154 3155 3154 3154 3154 3154 3154 3153 3153 3153 3152 3152 3152 3151 3152 3148 3141 3141 3142 3142 3144 3144 3146 3146 3146 3147 3149 3149 3149 3150 3150 3149 3151 3153 3153 3153 3154 3154 3155 3154 3152 3150 3151 3152 3151 3152 3153 3153 3153 3152 3150 3151 3151 3149 3150 3149 3149 3150 3151 3151 3150 3148 3146 3146 3148 3151 3153 3154 3153 3152 3154 3154 3155 3156 3155 3155 3155 3155 3155 3156 3156 3156 3156 3158
3155 3155 3154 3153 3153 3153 3153 3153 3153 3152 3152 3152 3152 3152 3152 3152 3152 3151 3153 3148 3141 3140 3141 3141 3142 3143 3144 3144 3144 3146 3148 3149 3149 3148 3149 3149 3150 3151 3152 3153 3153 3153 3154 3153 3151 3149 3149 3150 3150 3151 3152 3150 3150 3148 3147 3148 3149 3148 3149 3149 3150 3151 3150 3150 3149 3147 3146 3146 3147 3149 3151 3152 3151 3151 3153 3154 3154 3154 3155 3155 3154 3153 3154 3154 3155 3156 3156 3156
3153 3152 3152 3152 3151 3151 3151 3151 3151 3151 3151 3151 3151 3152 3152 3152 3152 3152 3151 3145 3140 3139 3140 3140 3141 3141 3142 3143 3143 3145 3147 3149 3149 3148 3148 3150 3149 3150 3151 3152 3153 3152 3152 3151 3150 3149 3149 3149 3149 3149 3149 3149 3148 3147 3147 3148 3148 3148 3149 3150 3150 3149 3147 3147 3147 3146 3146 3146 3147 3148 3149 3150 3149 3149 3151 3152 3152 3153 3154 3154 3152 3152 3152 3153 3153 3154 3155 3155
3151 3150 3150 3150 3150 3149 3149 3149 3150 3150 3150 3150 3150 3151 3151 3151 3152 3151 3146 3141 3139 3139 3138 3139 3141 3140 3141 3142 3143 3144 3146 3148 3149 3148 3148 3149 3149 3149 3150 3151 3151 3151 3150 3149 3148 3148 3149 3148 3148 3148 3148 3147 3148 3148 3147 3148 3149 3149 3150 3150 3149 3147 3146 3146 3147 3148 3149 3149 3147 3147 3146 3146 3146 3146 3148 3149 3150 3151 3152 3152 3151 3150 3151 3152 3152 3153 3154 3154
3149 3148 3148 3148 3148 3148 3148 3148 3148 3148 3148 3149 3149 3150 3151 3152 3151 3148 3143 3139 3138 3137 3137 3139 3140 3140 3141 3142 3143 3144 3145 3147 3147 3147 3148 3148 3148 3149 3149 3149 3149 3149 3148 3147 3146 3146 3146 3146 3146 3146 3146 3146 3147 3147 3147 3147 3149 3150 3150 3150 3148 3146 3146 3148 3149 3148 3148 3148 3146 3143 3143 3143 3143 3145 3147 3148 3149 3151 3151 3151 3151 3151 3152 3152 3152 3152 3153 3153
3146 3146 3146 3146 3146 3146 3146 3146 3147 3147 3147 3148 3148 3149 3151 3151 3148 3143 3141 3139 3136 3136 3138 3139 3140 3141 3142 3142 3143 3143 3144 3145 3145 3146 3147 3147 3147 3147 3147 3147 3148 3148 3145 3144 3144 3142 3142 3142 3143 3144 3143 3144 3145 3146 3145 3145 3146 3147 3148 3148 3146 3145 3148 3149 3147 3145 3144 3143 3142 3141 3142 3142 3142 3144 3147 3148 3150 3150 3150 3150 3151 3151 3151 3152 3152 3152 3152 3153
3144 3144 3144 3144 3145 3145 3145 3145 3145 3146 3146 3147 3148 3149 3150 3149 3144 3141 3140 3137 3135 3135 3137 3139 3139 3140 3141 3141 3142 3142 3143 3143 3144 3145 3146 3146 3146 3146 3146 3146 3147 3146 3145 3144 3142 3139 3137 3135 3136 3139 3141 3142 3143 3144 3143 3142 3143 3145 3145 3146 3144 3143 3145 3145 3141 3140 3140 3140 3140 3140 3141 3142 3142 3144 3147 3149 3149 3150 3150 3150 3150 3149 3150 3151 3152 3152 3152 3153
3143 3142 3142 3142 3143 3143 3143 3143 3144 3144 3145 3146 3147 3148 3148 3146 3142 3140 3139 3137 3136 3136 3137 3138 3139 3139 3139 3140 3140 3140 3141 3141 3142 3143 3143 3144 3144 3143 3144 3144 3144 3145 3144 3143 3140 3138 3136 3131 3131 3136 3139 3140 3142 3143 3143 3142 3142 3141 3143 3144 3143 3141 3140 3138 3137 3137 3136 3136 3137 3138 3139 3142 3144 3145 3147 3148 3148 3149 3150 3151 3151 3150 3149 3150 3151 3152 3153 3154
3141 3140 3140 3140 3141 3141 3142 3142 3142 3143 3144 3145 3146 3147 3146 3143 3142 3140 3139 3138 3138 3138 3138 3138 3138 3138 3138 3138 3139 3139 3139 3139 3140 3142 3141 3141 3142 3141 3141 3142 3142 3143 3143 3142 3139 3136 3134 3132 3132 3135 3138 3139 3141 3142 3143 3142 3140 3139 3139 3139 3139 3138 3137 3136 3136 3134 3134 3136 3136 3137 3139 3142 3144 3145 3147 3148 3147 3148 3149 3150 3151 3151 3150 3151 3153 3153 3154 3155
3139 3139 3139 3139 3139 3140 3140 3140 3141 3142 3143 3144 3145 3144 3144 3142 3142 3141 3140 3140 3140 3140 3140 3138 3137 3137 3136 3136 3137 3137 3137 3137 3138 3140 3139 3139 3138 3138 3139 3139 3140 3141 3141 3141 3140 3137 3135 3133 3132 3134 3137 3138 3140 3141 3142 3141 3141 3140 3137 3136 3136 3136 3136 3137 3138 3137 3138 3139 3138 3137 3139 3141 3144 3145 3147 3148 3147 3147 3149 3149 3150 3151 3150 3151 3153 3154 3154 3156
3138 3138 3137 3138 3138 3138 3139 3139 3140 3141 3142 3143 3143 3142 3142 3141 3140 3141 3140 3139 3140 3140 3140 3139 3137 3137 3136 3134 3133 3135 3136 3137 3137 3137 3137 3136 3135 3135 3136 3137 3138 3139 3140 3140 3140 3139 3138 3134 3131 3133 3136 3137 3138 3140 3140 3140 3141 3139 3136 3137 3138 3137 3136 3138 3139 3139 3138 3138 3138 3138 3139 3141 3143 3144 3145 3147 3148 3148 3149 3149 3150 3151 3150 3150 3152 3153 3153 3155
3137 3137 3137 3137 3138 3138 3138 3138 3139 3140 3141 3142 3142 3142 3142 3141 3140 3141 3140 3139 3139 3139 3140 3139 3138 3137 3136 3133 3131 3132 3133 3134 3135 3135 3135 3134 3133 3132 3134 3135 3135 3137 3139 3140 3140 3139 3139 3136 3132 3131 3134 3136 3136 3138 3138 3137 3139 3139 3138 3139 3139 3138 3138 3137 3137 3137 3137 3137 3139 3140 3141 3143 3143 3144 3145 3146 3147 3147 3148 3150 3151 3151 3149 3149 3150 3151 3152 3153
3137 3137 3137 3137 3137 3138 3138 3138 3139 3139 3140 3141 3142 3142 3142 3141 3141 3141 3140 3138 3139 3139 3139 3139 3138 3136 3136 3134 3132 3131 3131 3131 3132 3133 3132 3132 3131 3131 3132 3133 3134 3135 3137 3138 3139 3139 3139 3137 3133 3132 3133 3135 3135 3136 3136 3136 3136 3137 3138 3138 3137 3138 3138 3137 3135 3136 3136 3136 3137 3139 3142 3145 3144 3144 3145 3146 3147 3147 3147 3148 3150 3150 3148 3149 3150 3150 3151 3152
3138 3139 3139 3137 3137 3138 3138 3138 3138 3139 3140 3141 3141 3141 3140 3139 3139 3140 3139 3138 3139 3139 3138 3138 3137 3136 3135 3135 3132 3131 3131 3130 3128 3129 3130 3130 3130 3130 3130 3132 3133 3134 3135 3137 3138 3138 3137 3137 3134 3131 3130 3132 3133 3133 3134 3135 3134 3134 3135 3135 3135 3135 3136 3136 3134 3133 3135 3134 3133 3136 3140 3143 3144 3145 3144 3146 3147 3146 3146 3147 3147 3148 3148 3149 3150 3150 3150 3150
3139 3140 3139 3137 3137 3137 3137 3138 3139 3140 3140 3140 3140 3140 3139 3138 3139 3139 3138 3138 3139 3139 3138 3137 3137 3136 3135 3135 3133 3131 3131 3129 3126 3126 3127 3127 3128 3129 3130 3131 3132 3133 3134 3134 3136 3137 3137 3136 3135 3131 3128 3129 3130 3130 3130 3132 3132 3133 3133 3132 3131 3132 3134 3135 3131 3129 3132 3134 3134 3135 3138 3140 3143 3144 3143 3145 3146 3145 3145 3146 3146 3146 3147 3148 3149 3149 3149 3149
3139 3140 3139 3137 3137 3137 3137 3138 3140 3140 3140 3140 3140 3140 3139 3138 3138 3138 3138 3138 3138 3138 3137 3137 3136 3136 3135 3134 3133 3131 3131 3129 3126 3125 3125 3126 3127 3128 3129 3129 3130 3132 3133 3133 3134 3135 3136 3135 3134 3132 3129 3128 3128 3126 3127 3129 3132 3132 3131 3130 3130 3130 3132 3133 3130 3128 3130 3134 3134 3135 3137 3140 3142 3143 3142 3144 3145 3145 3145 3146 3145 3145 3146 3147 3148 3148 3148 3148
3139 3139 3139 3138 3137 3137 3138 3139 3140 3139 3139 3139 3138 3138 3137 3137 3137 3137 3137 3137 3137 3137 3136 3136 3136 3135 3134 3134 3134 3132 3132 3130 3127 3126 3126 3126 3126 3127 3127 3127 3128 3130 3132 3133 3133 3133 3133 3133 3133 3133 3131 3130 3129 3126 3125 3127 3131 3131 3130 3130 3130 3130 3130 3129 3128 3128 3130 3133 3134 3134 3137 3141 3142 3142 3143 3144 3145 3145 3145 3144 3144 3145 3146 3147 3147 3147 3147 3148
3139 3139 3140 3141 3139 3138 3139 3139 3139 3138 3138 3137 3136 3136 3135 3135 3136 3136 3135 3135 3135 3135 3135 3134 3134 3134 3133 3133 3132 3132 3132 3131 3129 3128 3128 3128 3127 3127 3127 3127 3127 3129 3130 3130 3132 3132 3131 3130 3130 3131 3131 3129 3128 3127 3125 3125 3129 3130 3129 3131 3131 3131 3130 3129 3127 3127 3129 3131 3134 3135 3137 3139 3140 3141 3142 3143 3144 3144 3144 3144 3143 3144 3145 3145 3146 3146 3146 3147
3139 3140 3141 3140 3140 3139 3140 3140 3138 3138 3138 3136 3134 3134 3134 3134 3134 3134 3134 3133 3133 3133 3133 3133 3133 3133 3132 3132 3131 3131 3131 3130 3129 3128 3128 3128 3127 3127 3128 3127 3127 3128 3128 3128 3130 3131 3131 3128 3126 3127 3129 3129 3128 3128 3128 3127 3128 3128 3127 3129 3130 3130 3130 3130 3130 3129 3129 3130 3133 3135 3137 3138 3139 3140 3140 3142 3144 3144 3144 3144 3143 3143 3144 3144 3145 3145 3146 3146
3140 3141 3140 3139 3138 3139 3140 3140 3138 3136 3136 3135 3134 3134 3133 3133 3133 3133 3132 3132 3131 3131 3131 3131 3131 3131 3131 3131 3131 3130 3129 3129 3129 3128 3128 3127 3126 3126 3125 3125 3126 3126 3127 3129 3130 3131 3131 3128 3125 3126 3128 3129 3129 3129 3129 3128 3128 3128 3127 3127 3127 3128 3129 3129 3130 3130 3130 3131 3133 3133 3136 3138 3138 3139 3139 3140 3143 3143 3143 3144 3144 3143 3143 3143 3144 3145 3145 3146
3140 3140 3139 3138 3138 3138 3138 3138 3136 3135 3135 3135 3134 3133 3133 3133 3132 3132 3131 3131 3131 3130 3130 3130 3130 3130 3130 3130 3130 3128 3128 3128 3127 3127 3127 3126 3125 3124 3122 3122 3124 3125 3127 3130 3130 3131 3130 3128 3127 3127 3127 3128 3128 3128 3129 3129 3128 3128 3127 3126 3126 3126 3127 3127 3127 3127 3128 3130 3132 3132 3134 3136 3137 3138 3138 3138 3141 3142 3142 3143 3144 3144 3144 3144 3144 3144 3144 3145
3139 3139 3138 3137 3137 3136 3136 3135 3134 3134 3134 3134 3133 3132 3132 3132 3132 3131 3130 3129 3129 3129 3129 3129 3129 3129 3128 3128 3128 3127 3127 3127 3126 3125 3124 3123 3122 3122 3120 3121 3123 3124 3125 3127 3127 3128 3128 3126 3127 3127 3126 3126 3126 3126 3127 3128 3127 3126 3125 3125 3125 3124 3125 3125 3124 3125 3127 3128 3130 3131 3132 3134 3135 3137 3137 3137 3140 3142 3141 3142 3143 3144 3144 3144 3144 3144 3144 3144
3138 3138 3137 3136 3135 3134 3134 3134 3134 3134 3134 3133 3132 3131 3131 3131 3131 3130 3129 3127 3127 3126 3127 3128 3128 3127 3127 3126 3127 3126 3124 3124 3124 3123 3123 3121 3120 3121 3119 3118 3119 3121 3122 3123 3124 3125 3125 3124 3125 3127 3125 3124 3124 3124 3124 3124 3124 3124 3123 3124 3124 3124 3124 3124 3124 3125 3125 3125 3126 3128 3130 3132 3134 3135 3135 3136 3139 3141 3141 3141 3142 3142 3142 3142 3143 3143 3143 3144
3138 3137 3135 3135 3134 3133 3133 3134 3134 3134 3133 3132 3131 3130 3129 3129 3129 3127 3126 3126 3126 3126 3127 3127 3126 3125 3124 3124 3125 3124 3120 3119 3119 3118 3119 3119 3118 3119 3118 3116 3116 3116 3117 3118 3120 3122 3122 3122 3124 3125 3123 3122 3122 3123 3122 3121 3121 3119 3119 3120 3121 3121 3122 3122 3123 3124 3124 3123 3125 3127 3129 3131 3132 3133 3133 3135 3136 3138 3140 3141 3141 3141 3141 3141 3141 3142 3143 3144
3137 3136 3135 3134 3133 3132 3133 3133 3134 3134 3132 3130 3130 3129 3128 3128 3127 3126 3124 3124 3124 3125 3126 3124 3122 3122 3122 3122 3123 3120 3117 3115 3114 3113 3114 3115 3115 3116 3116 3115 3115 3116 3116 3116 3117 3118 3119 3120 3121 3122 3121 3120 3121 3121 3121 3121 3119 3116 3116 3119 3120 3120 3121 3122 3123 3124 3124 3123 3124 3126 3127 3128 3130 3132 3133 3134 3135 3136 3138 3139 3140 3140 3141 3141 3142 3143 3143 3143